sat.trackr.live / text

‹ back to catalog

STARLINK-36453

NORAD 67341 · 2026-003H

PAYLOAD ACTIVE UNKNOWN

§ Identity

Operator
Country
US
Launch date
2026-01-09
Launch site
AFETR
Launch vehicle
Mass (kg)
RCS (m²)

Purposes: comms

External: N2YO · Heavens-Above · Gunter

§ Orbital elements

Epoch: 2026-09-19T13:18:41.410944Z

Period
94.27 min
Inclination
43.0019°
Eccentricity
0.0001740
Mean motion
15.27607865 rev/d
Perigee alt
481.8 km
Apogee alt
484.2 km
Semi-major
6,861.1 km
B*
4.2504e-4
RAAN
212.1660°
Arg perigee
270.5459°
Mean anomaly
89.5193°
Rev number
3,847

§ Raw data

STARLINK-364531 67341U 26003H   26262.55464596  .00011462  00000+0  42504-3 0  99952 67341  43.0019 212.1660 0001740 270.5459  89.5193 15.27607865 38476

JSON: /api/v1/satellites/67341 · /tle

For live sub-satellite position, see the globe view (requires WebGL).

§ Visibility from observer

Set your observer location to see the next 7 days of passes ≥ 10°. The values pass through the URL so the page stays shareable.

No JS? Fill the form by hand. The geolocation button needs JavaScript.